CW2751 Weather Reports


Display with metric or nautical units.
time (UTC)temp
F
wind
direction
speed
MPH
gust
MPH
rain 1hr
in
rain 24hr
in
rain mn
in
humidity
%
barometer
mb
20260831041528 66 350 5.0 0.0 0.00 0.00 0.00 82 1003.8
20260831040041 66 319 2.0 0.0 0.00 0.00 0.00 86 1005.6
20260831034533 66 274 1.0 0.0 0.00 0.00 0.00 85 1005.2
20260831033058 66 326 4.0 0.0 0.00 0.00 0.00 84 1005.1
20260831031532 66 292 3.0 0.0 0.00 0.00 0.00 83 1005.3
20260831030043 66 330 4.0 0.0 0.00 0.00 0.00 82 1005.5
20260831024540 67 326 6.0 0.0 0.00 0.00 0.00 81 1005.5
20260831023045 67 346 7.0 0.0 0.00 0.00 0.00 78 1005.5
20260831021507 71 305 18.0 0.0 0.00 0.00 0.00 69 1005.5
20260831020022 83 337 9.0 0.0 0.00 0.00 0.00 34 1005.0
20260831014511 84 154 0.0 0.0 0.00 0.00 0.00 40 1002.3
20260831013044 85 154 1.0 0.0 0.00 0.00 0.00 38 1002.0
20260831011549 86 166 0.0 0.0 0.00 0.00 0.00 36 1002.1
20260831010049 87 87 0.0 0.0 0.00 0.00 0.00 36 1001.9
20260831004521 88 87 0.0 0.0 0.00 0.00 0.00 34 1001.9
20260831003025 90 165 0.0 0.0 0.00 0.00 0.00 33 1001.6
20260831001553 90 165 0.0 0.0 0.00 0.00 0.00 31 1001.6
20260831000104 91 168 2.0 0.0 0.00 0.00 0.00 29 1001.6
20260831000003 91 172 2.0 0.0 0.00 0.00 0.00 29 1001.6
20260830234510 91 118 0.0 0.0 0.00 0.00 0.00 27 1001.4
20260830233018 92 202 0.0 0.0 0.00 0.00 0.00 26 1001.4
20260830231543 92 111 1.0 0.0 0.00 0.00 0.00 25 1001.3
20260830230048 92 124 1.0 0.0 0.00 0.00 0.00 25 1001.1
20260830224549 93 147 1.0 0.0 0.00 0.00 0.00 25 1001.0
20260830223055 92 206 2.0 0.0 0.00 0.00 0.00 24 1000.8
20260830221600 93 68 2.0 0.0 0.00 0.00 0.00 25 1000.7
20260830221502 93 90 2.0 0.0 0.00 0.00 0.00 26 1000.7
20260830220054 93 212 1.0 0.0 0.00 0.00 0.00 24 1000.4
20260830214558 93 250 1.0 0.0 0.00 0.00 0.00 23 1000.9
20260830213024 93 209 1.0 0.0 0.00 0.00 0.00 23 1000.8
20260830211539 93 73 2.0 0.0 0.00 0.00 0.00 26 1000.9
20260830210048 93 326 2.0 0.0 0.00 0.00 0.00 23 1001.1
20260830204553 94 61 4.0 0.0 0.00 0.00 0.00 25 1001.1
20260830203020 94 179 2.0 0.0 0.00 0.00 0.00 22 1000.8
20260830201523 95 326 2.0 0.0 0.00 0.00 0.00 24 1000.8
20260830200035 95 56 3.0 0.0 0.00 0.00 0.00 23 1001.0
20260830194528 96 4 1.0 0.0 0.00 0.00 0.00 23 1000.8
20260830193032 95 275 2.0 0.0 0.00 0.00 0.00 22 1001.4
20260830191609 94 254 2.0 0.0 0.00 0.00 0.00 22 1001.5
20260830190052 92 271 3.0 0.0 0.00 0.00 0.00 25 1001.4
20260830184509 91 86 1.0 0.0 0.00 0.00 0.00 27 1001.6
20260830183012 90 75 2.0 0.0 0.00 0.00 0.00 27 1001.7
20260830181524 90 44 3.0 0.0 0.00 0.00 0.00 27 1001.8
20260830180053 90 87 4.0 0.0 0.00 0.00 0.00 28 1002.0
20260830174601 89 18 3.0 0.0 0.00 0.00 0.00 28 1002.3
20260830173018 87 327 4.0 0.0 0.00 0.00 0.00 28 1002.6
20260830171523 87 326 4.0 0.0 0.00 0.00 0.00 30 1002.9
20260830170049 85 351 4.0 0.0 0.00 0.00 0.00 33 1002.2
20260830164549 83 4 4.0 0.0 0.00 0.00 0.00 38 1002.4
20260830163055 81 24 4.0 0.0 0.00 0.00 0.00 39 1002.9
20260830161610 79 295 5.0 0.0 0.00 0.00 0.00 43 1003.3
20260830161500 79 353 5.0 0.0 0.00 0.00 0.00 43 1002.2
20260830160009 77 320 3.0 0.0 0.00 0.00 0.00 47 1002.2
20260830154531 76 296 2.0 0.0 0.00 0.00 0.00 49 1002.4
20260830153052 74 325 2.0 0.0 0.00 0.00 0.00 52 1002.2
20260830151557 73 319 5.0 0.0 0.00 0.00 0.00 52 1002.6
20260830150057 72 244 5.0 0.0 0.00 0.00 0.00 55 1002.9
20260830144609 71 265 5.0 0.0 0.00 0.00 0.00 58 1002.7
20260830144519 71 265 5.0 0.0 0.00 0.00 0.00 58 1002.7
20260830143036 70 277 4.0 0.0 0.00 0.00 0.00 59 1002.9
20260830141541 69 325 3.0 0.0 0.00 0.00 0.00 62 1002.7
20260830140007 68 291 5.0 0.0 0.00 0.00 0.00 65 1002.4
20260830134510 67 279 4.0 0.0 0.00 0.00 0.00 66 1002.8
20260830133017 66 303 4.0 0.0 0.00 0.00 0.00 67 1002.8
20260830131542 66 320 5.0 0.0 0.00 0.00 0.00 68 1002.6
20260830130031 65 260 6.0 0.0 0.00 0.00 0.00 70 1001.8
20260830124558 65 246 4.0 0.0 0.00 0.00 0.00 72 1001.6
20260830123032 64 278 3.0 0.0 0.00 0.00 0.00 72 1001.3
20260830121556 64 288 5.0 0.0 0.00 0.00 0.00 72 1001.2
20260830120119 64 285 4.0 0.0 0.00 0.00 0.00 73 1001.5
20260830120002 64 275 4.0 0.0 0.00 0.00 0.00 73 1000.9
20260830114505 64 303 3.0 0.0 0.00 0.00 0.00 73 1000.9
20260830113016 64 271 5.0 0.0 0.00 0.00 0.00 74 1000.8
20260830111525 64 313 4.0 0.0 0.00 0.00 0.00 74 1000.5
20260830110043 64 282 3.0 0.0 0.00 0.00 0.00 74 999.9
20260830104541 65 271 4.0 0.0 0.00 0.00 0.00 74 999.9
20260830103046 65 305 4.0 0.0 0.00 0.00 0.00 73 1000.0
20260830101535 65 298 4.0 0.0 0.00 0.00 0.00 73 1000.0
20260830100043 65 296 4.0 0.0 0.00 0.00 0.00 73 999.6
20260830094549 66 268 4.0 0.0 0.00 0.00 0.00 72 999.6
20260830093049 66 303 2.0 0.0 0.00 0.00 0.00 72 999.6
20260830091553 66 294 2.0 0.0 0.00 0.00 0.00 72 999.9
20260830090004 66 291 2.0 0.0 0.00 0.00 0.00 71 999.4
20260830084507 66 289 4.0 0.0 0.00 0.00 0.00 71 999.4
20260830083010 67 291 5.0 0.0 0.00 0.00 0.00 70 999.3
20260830081529 67 316 4.0 0.0 0.00 0.00 0.00 70 999.7
20260830080017 67 284 3.0 0.0 0.00 0.00 0.00 70 1000.1
20260830074531 67 326 3.0 0.0 0.00 0.00 0.00 71 1000.3
20260830073035 68 318 4.0 0.0 0.00 0.00 0.00 70 1000.1
20260830071531 68 336 3.0 0.0 0.00 0.00 0.00 69 999.7
20260830070038 69 326 3.0 0.0 0.00 0.00 0.00 66 1000.0
20260830064537 70 323 2.0 0.0 0.00 0.00 0.00 63 1000.3
20260830063041 71 295 2.0 0.0 0.00 0.00 0.00 62 1000.5
20260830061533 71 309 6.0 0.0 0.00 0.00 0.00 61 1000.3
20260830060053 72 342 6.0 0.0 0.00 0.00 0.00 60 1000.6
20260830054550 72 325 5.0 0.0 0.00 0.00 0.00 58 1000.2
20260830053058 73 268 9.0 0.0 0.00 0.00 0.00 56 1000.3
20260830053001 73 326 9.0 0.0 0.00 0.00 0.00 56 999.9
20260830051506 75 357 11.0 0.0 0.00 0.00 0.00 54 999.7
20260830050020 78 322 13.0 0.0 0.00 0.00 0.00 51 999.7
20260830044523 81 337 10.0 0.0 0.00 0.00 0.00 42 998.9
20260830043040 83 281 6.0 0.0 0.00 0.00 0.00 35 997.7